EW7216 Weather Reports


Display with metric or nautical units.
time (UTC)temp
F
wind
direction
speed
MPH
gust
MPH
rain 1hr
in
rain 24hr
in
rain mn
in
humidity
%
barometer
mb
20260831212104 76 291 3.0 4.0 0.00 0.00 0.00 72 1022.2
20260831211104 76 270 3.0 4.0 0.00 0.00 0.00 71 1022.2
20260831210104 77 298 3.0 6.0 0.00 0.00 0.00 70 1022.1
20260831205103 77 284 4.0 6.0 0.00 0.00 0.00 69 1022.3
20260831204103 76 284 3.0 6.0 0.00 0.00 0.00 70 1022.0
20260831203103 77 282 3.0 4.0 0.00 0.00 0.00 71 1021.9
20260831202103 77 266 3.0 6.0 0.00 0.00 0.00 70 1021.9
20260831201104 77 311 2.0 4.0 0.00 0.00 0.00 69 1021.9
20260831200123 77 237 1.0 3.0 0.00 0.00 0.00 70 1022.0
20260831195103 77 316 2.0 3.0 0.00 0.00 0.00 71 1021.9
20260831194103 77 283 3.0 4.0 0.00 0.00 0.00 71 1021.9
20260831193103 78 305 3.0 7.0 0.00 0.00 0.00 70 1021.7
20260831192104 78 303 3.0 4.0 0.00 0.00 0.00 70 1021.7
20260831191124 78 301 3.0 6.0 0.00 0.00 0.00 71 1021.7
20260831190104 78 302 4.0 7.0 0.00 0.00 0.00 70 1021.7
20260831185104 78 300 4.0 8.0 0.00 0.00 0.00 70 1021.7
20260831184103 78 331 3.0 7.0 0.00 0.00 0.00 69 1021.5
20260831183103 79 317 5.0 7.0 0.00 0.00 0.00 68 1021.3
20260831182103 79 295 5.0 8.0 0.00 0.00 0.00 67 1021.1
20260831181103 79 316 5.0 9.0 0.00 0.00 0.00 67 1021.3
20260831175103 80 309 5.0 9.0 0.00 0.00 0.00 64 1021.2
20260831174104 81 307 6.0 9.0 0.00 0.00 0.00 63 1021.0
20260831173104 81 320 5.0 8.0 0.00 0.00 0.00 62 1021.1
20260831172123 81 319 6.0 13.0 0.00 0.00 0.00 61 1021.1
20260831171103 82 288 5.0 10.0 0.00 0.00 0.00 58 1020.9
20260831170123 82 315 6.0 10.0 0.00 0.00 0.00 56 1021.1
20260831165103 83 321 5.0 9.0 0.00 0.00 0.00 54 1021.1
20260831164103 83 313 7.0 13.0 0.00 0.00 0.00 53 1021.1
20260831163103 84 347 5.0 10.0 0.00 0.00 0.00 52 1021.2
20260831162103 84 330 6.0 13.0 0.00 0.00 0.00 51 1021.2
20260831161103 85 293 4.0 9.0 0.00 0.00 0.00 49 1021.2
20260831160103 85 165 4.0 10.0 0.00 0.00 0.00 49 1021.1
20260831155105 86 317 5.0 10.0 0.00 0.00 0.00 46 1021.2
20260831154124 86 336 4.0 9.0 0.00 0.00 0.00 45 1021.3
20260831153104 86 341 6.0 14.0 0.00 0.00 0.00 45 1021.1
20260831152103 86 264 4.0 10.0 0.00 0.00 0.00 45 1021.3
20260831151124 87 223 5.0 10.0 0.00 0.00 0.00 45 1021.1
20260831150123 87 350 4.0 10.0 0.00 0.00 0.00 44 1021.1
20260831145123 87 5 4.0 13.0 0.00 0.00 0.00 44 1021.1
20260831144103 88 250 4.0 13.0 0.00 0.00 0.00 44 1021.1
20260831143103 88 324 6.0 14.0 0.00 0.00 0.00 41 1020.8
20260831142124 89 337 7.0 11.0 0.00 0.00 0.00 34 1020.7
20260831141103 89 334 5.0 8.0 0.00 0.00 0.00 33 1020.7
20260831135103 89 307 4.0 9.0 0.00 0.00 0.00 37 1020.7
20260831134104 89 327 6.0 14.0 0.00 0.00 0.00 38 1020.8
20260831133103 89 271 5.0 10.0 0.00 0.00 0.00 38 1020.8
20260831132103 88 79 3.0 13.0 0.00 0.00 0.00 38 1021.0
20260831131104 88 300 3.0 11.0 0.00 0.00 0.00 38 1021.1
20260831125103 87 164 1.0 2.0 0.00 0.00 0.00 43 1021.0
20260831124103 87 278 3.0 8.0 0.00 0.00 0.00 44 1021.1
20260831123103 87 337 6.0 10.0 0.00 0.00 0.00 44 1021.2
20260831122103 87 313 4.0 8.0 0.00 0.00 0.00 45 1021.0
20260831121103 87 7 3.0 7.0 0.00 0.00 0.00 45 1021.2
20260831120106 87 316 5.0 11.0 0.00 0.00 0.00 46 1021.4
20260831115103 87 323 4.0 14.0 0.00 0.00 0.00 48 1021.3
20260831114103 86 232 4.0 7.0 0.00 0.00 0.00 50 1021.4
20260831113103 86 286 3.0 3.0 0.00 0.00 0.00 51 1021.6
20260831112103 86 286 3.0 3.0 0.00 0.00 0.00 51 1021.5
20260831111103 86 359 4.0 8.0 0.00 0.00 0.00 51 1021.5
20260831105103 85 344 3.0 7.0 0.00 0.00 0.00 53 1021.8
20260831104103 85 275 5.0 11.0 0.00 0.00 0.00 56 1021.8
20260831103103 85 153 3.0 7.0 0.00 0.00 0.00 57 1021.9
20260831102104 84 346 3.0 7.0 0.00 0.00 0.00 58 1022.0
20260831101103 84 314 5.0 9.0 0.00 0.00 0.00 60 1021.8
20260831100103 84 340 5.0 10.0 0.00 0.00 0.00 61 1021.6
20260831095123 83 339 3.0 9.0 0.00 0.00 0.00 63 1021.9
20260831094103 82 328 6.0 9.0 0.00 0.00 0.00 65 1021.6
20260831093104 82 285 5.0 11.0 0.00 0.00 0.00 67 1021.7
20260831092104 82 323 6.0 13.0 0.00 0.00 0.00 67 1021.6
20260831091104 81 308 5.0 10.0 0.00 0.00 0.00 67 1021.5
20260831090103 81 299 4.0 11.0 0.00 0.00 0.00 67 1021.5
20260831085103 80 300 6.0 9.0 0.00 0.00 0.00 69 1021.4
20260831084104 80 333 4.0 8.0 0.00 0.00 0.00 69 1021.4
20260831083124 80 279 6.0 10.0 0.00 0.00 0.00 70 1021.5
20260831082104 80 324 5.0 9.0 0.00 0.00 0.00 71 1021.4
20260831081104 79 305 3.0 7.0 0.00 0.00 0.00 71 1021.3
20260831080104 78 331 2.0 3.0 0.00 0.00 0.00 72 1021.4
20260831075103 77 300 3.0 4.0 0.00 0.00 0.00 73 1021.3
20260831074103 77 170 3.0 6.0 0.00 0.00 0.00 74 1021.3
20260831073125 77 331 2.0 4.0 0.00 0.00 0.00 75 1021.3
20260831072104 76 335 2.0 3.0 0.00 0.00 0.00 77 1021.1
20260831071103 75 342 1.0 2.0 0.00 0.00 0.00 78 1021.0
20260831070124 75 303 2.0 3.0 0.00 0.00 0.00 78 1021.0
20260831065104 75 239 2.0 3.0 0.00 0.00 0.00 78 1021.0
20260831064104 75 267 2.0 3.0 0.00 0.00 0.00 77 1021.1
20260831063124 75 0.0 0.0 0.00 0.00 0.00 76 1021.0
20260831062103 76 0.0 0.0 0.00 0.00 0.00 71 1021.0
20260831061103 74 0.0 0.0 0.00 0.00 0.00 69 1020.9
20260831060144 74 0.0 0.0 0.00 0.00 0.00 78 1020.8
20260831055103 74 0.0 0.0 0.00 0.00 0.00 79 1021.0
20260831054103 74 0.0 0.0 0.00 0.00 0.00 79 1021.0
20260831053103 74 0.0 0.0 0.00 0.00 0.00 79 1020.8
20260831052103 74 0.0 0.0 0.00 0.00 0.00 79 1020.8
20260831051103 74 303 1.0 1.0 0.00 0.00 0.00 78 1020.6
20260831050104 74 307 1.0 2.0 0.00 0.00 0.00 78 1020.7
20260831045103 73 0.0 0.0 0.00 0.00 0.00 79 1020.8
20260831044103 74 0.0 0.0 0.00 0.00 0.00 77 1020.9
20260831043104 75 0.0 1.0 0.00 0.00 0.00 76 1020.7
20260831042104 74 0.0 0.0 0.00 0.00 0.00 77 1020.6
20260831041146 74 0.0 0.0 0.00 0.00 0.00 76 1020.5
20260831040103 75 0.0 0.0 0.00 0.00 0.00 75 1020.7
20260831035103 75 152 1.0 3.0 0.00 0.00 0.00 74 1020.5
20260831034103 75 147 2.0 3.0 0.00 0.00 0.00 75 1020.4
20260831033103 75 149 1.0 1.0 0.00 0.00 0.00 75 1020.5
20260831032103 75 0.0 0.0 0.00 0.00 0.00 76 1020.6
20260831031103 75 0.0 0.0 0.00 0.00 0.00 75 1020.5
20260831030103 75 148 0.0 1.0 0.00 0.00 0.00 76 1020.5
20260831025103 74 0.0 0.0 0.00 0.00 0.00 78 1020.7
20260831024106 74 0.0 0.0 0.00 0.00 0.00 79 1020.7
20260831023103 74 0.0 0.0 0.00 0.00 0.00 78 1020.7
20260831022103 74 0.0 0.0 0.00 0.00 0.00 78 1020.7
20260831021103 74 0.0 0.0 0.00 0.00 0.00 77 1020.7
20260831015103 74 0.0 0.0 0.00 0.00 0.00 76 1020.9
20260831014104 74 0.0 0.0 0.00 0.00 0.00 77 1021.0
20260831013104 74 0.0 0.0 0.00 0.00 0.00 77 1021.0
20260831012143 74 0.0 0.0 0.00 0.00 0.00 77 1020.9
20260831011103 75 104 1.0 2.0 0.00 0.00 0.00 78 1020.9
20260831005103 75 0.0 0.0 0.00 0.00 0.00 79 1020.8
20260831004104 75 0.0 0.0 0.00 0.00 0.00 78 1020.8
20260831003119 76 0.0 0.0 0.00 0.00 0.00 77 1020.7
20260831002104 77 0.0 2.0 0.00 0.00 0.00 75 1020.9
20260831001103 76 0.0 0.0 0.00 0.00 0.00 76 1020.9
20260831000103 76 0.0 0.0 0.00 0.00 0.00 76 1020.8
20260830235105 76 0.0 0.0 0.00 0.00 0.00 76 1020.8
20260830234103 77 169 0.0 1.0 0.00 0.00 0.00 76 1020.8
20260830233103 77 0.0 0.0 0.00 0.00 0.00 75 1020.7
20260830232104 77 0.0 0.0 0.00 0.00 0.00 75 1020.8
20260830231104 77 0.0 0.0 0.00 0.00 0.00 75 1020.8
20260830230104 76 0.0 0.0 0.00 0.00 0.00 76 1020.8
20260830225123 76 322 0.0 1.0 0.00 0.00 0.00 75 1020.8
20260830224103 76 316 1.0 2.0 0.00 0.00 0.00 75 1020.8
20260830223104 77 295 2.0 3.0 0.00 0.00 0.00 75 1020.8
20260830222104 77 317 2.0 4.0 0.00 0.00 0.00 74 1020.8
20260830221104 77 269 2.0 3.0 0.00 0.00 0.00 74 1020.7
20260830220103 77 303 3.0 4.0 0.00 0.00 0.00 74 1020.7
20260830215104 77 294 3.0 4.0 0.00 0.00 0.00 73 1020.7
20260830214103 77 300 3.0 6.0 0.00 0.00 0.00 74 1020.7
20260830213103 77 301 3.0 4.0 0.00 0.00 0.00 74 1020.8